Year,Month,Day,Hour,Minute,Value (Times are PST for temperature in C)
2015,07,15,00,00,16.00
2015,07,15,00,01,16.00
2015,07,15,00,02,16.00
2015,07,15,00,03,16.00
2015,07,15,00,04,16.00
2015,07,15,00,05,16.00
2015,07,15,00,06,16.00
2015,07,15,00,07,16.00
2015,07,15,00,08,16.00
2015,07,15,00,09,16.00
2015,07,15,00,10,16.00
2015,07,15,00,11,16.00
2015,07,15,00,12,16.00
2015,07,15,00,13,16.00
2015,07,15,00,14,16.00
2015,07,15,00,15,16.00
2015,07,15,00,16,16.00
2015,07,15,00,17,16.00
2015,07,15,00,18,15.90
2015,07,15,00,19,15.90
2015,07,15,00,20,15.90
2015,07,15,00,21,15.90
2015,07,15,00,22,15.90
2015,07,15,00,23,15.90
2015,07,15,00,24,15.90
2015,07,15,00,25,15.90
2015,07,15,00,26,15.90
2015,07,15,00,27,15.90
2015,07,15,00,28,15.90
2015,07,15,00,29,15.80
2015,07,15,00,30,15.80
2015,07,15,00,31,15.80
2015,07,15,00,32,15.80
2015,07,15,00,33,15.80
2015,07,15,00,34,15.80
2015,07,15,00,35,15.80
2015,07,15,00,36,15.80
2015,07,15,00,37,15.80
2015,07,15,00,38,15.80
2015,07,15,00,39,15.80
2015,07,15,00,40,15.70
2015,07,15,00,41,15.70
2015,07,15,00,42,15.70
2015,07,15,00,43,15.70
2015,07,15,00,44,15.70
2015,07,15,00,45,15.70
2015,07,15,00,46,15.70
2015,07,15,00,47,15.70
2015,07,15,00,48,15.70
2015,07,15,00,49,15.70
2015,07,15,00,50,15.60
2015,07,15,00,51,15.60
2015,07,15,00,52,15.60
2015,07,15,00,53,15.60
2015,07,15,00,54,15.60
2015,07,15,00,55,15.50
2015,07,15,00,56,15.50
2015,07,15,00,57,15.50
2015,07,15,00,58,15.40
2015,07,15,00,59,15.40
2015,07,15,01,00,15.40
2015,07,15,01,01,15.40
2015,07,15,01,02,15.40
2015,07,15,01,03,15.40
2015,07,15,01,04,15.30
2015,07,15,01,05,15.30
2015,07,15,01,06,15.30
2015,07,15,01,07,15.30
2015,07,15,01,08,15.30
2015,07,15,01,09,15.30
2015,07,15,01,10,15.30
2015,07,15,01,11,15.30
2015,07,15,01,12,15.30
2015,07,15,01,13,15.30
2015,07,15,01,14,15.30
2015,07,15,01,15,15.30
2015,07,15,01,16,15.30
2015,07,15,01,17,15.30
2015,07,15,01,18,15.20
2015,07,15,01,19,15.20
2015,07,15,01,20,15.20
2015,07,15,01,21,15.20
2015,07,15,01,22,15.20
2015,07,15,01,23,15.20
2015,07,15,01,24,15.10
2015,07,15,01,25,15.10
2015,07,15,01,26,15.10
2015,07,15,01,27,15.10
2015,07,15,01,28,15.10
2015,07,15,01,29,15.10
2015,07,15,01,30,15.10
2015,07,15,01,31,15.10
2015,07,15,01,32,15.10
2015,07,15,01,33,15.10
2015,07,15,01,34,15.10
2015,07,15,01,35,15.10
2015,07,15,01,36,15.10
2015,07,15,01,37,15.10
2015,07,15,01,38,15.10
2015,07,15,01,39,15.10
2015,07,15,01,40,15.10
2015,07,15,01,41,15.10
2015,07,15,01,42,15.00
2015,07,15,01,43,15.00
2015,07,15,01,44,15.00
2015,07,15,01,45,15.00
2015,07,15,01,46,15.00
2015,07,15,01,47,15.00
2015,07,15,01,48,15.00
2015,07,15,01,49,15.00
2015,07,15,01,50,14.90
2015,07,15,01,51,14.90
2015,07,15,01,52,14.90
2015,07,15,01,53,14.90
2015,07,15,01,54,14.90
2015,07,15,01,55,14.90
2015,07,15,01,56,14.90
2015,07,15,01,57,14.90
2015,07,15,01,58,14.90
2015,07,15,01,59,14.80
2015,07,15,02,00,14.80
2015,07,15,02,01,14.80
2015,07,15,02,02,14.80
2015,07,15,02,03,14.70
2015,07,15,02,04,14.70
2015,07,15,02,05,14.70
2015,07,15,02,06,14.70
2015,07,15,02,07,14.60
2015,07,15,02,08,14.60
2015,07,15,02,09,14.60
2015,07,15,02,10,14.60
2015,07,15,02,11,14.60
2015,07,15,02,12,14.60
2015,07,15,02,13,14.60
2015,07,15,02,14,14.60
2015,07,15,02,15,14.60
2015,07,15,02,16,14.60
2015,07,15,02,17,14.60
2015,07,15,02,18,14.60
2015,07,15,02,19,14.60
2015,07,15,02,20,14.50
2015,07,15,02,21,14.50
2015,07,15,02,22,14.50
2015,07,15,02,23,14.50
2015,07,15,02,24,14.50
2015,07,15,02,25,14.50
2015,07,15,02,26,14.50
2015,07,15,02,27,14.50
2015,07,15,02,28,14.50
2015,07,15,02,29,14.50
2015,07,15,02,30,14.50
2015,07,15,02,31,14.50
2015,07,15,02,32,14.50
2015,07,15,02,33,14.40
2015,07,15,02,34,14.40
2015,07,15,02,35,14.40
2015,07,15,02,36,14.40
2015,07,15,02,37,14.40
2015,07,15,02,38,14.40
2015,07,15,02,39,14.40
2015,07,15,02,40,14.40
2015,07,15,02,41,14.40
2015,07,15,02,42,14.40
2015,07,15,02,43,14.40
2015,07,15,02,44,14.40
2015,07,15,02,45,14.40
2015,07,15,02,46,14.40
2015,07,15,02,47,14.40
2015,07,15,02,48,14.30
2015,07,15,02,49,14.30
2015,07,15,02,50,14.30
2015,07,15,02,51,14.30
2015,07,15,02,52,14.30
2015,07,15,02,53,14.30
2015,07,15,02,54,14.30
2015,07,15,02,55,14.30
2015,07,15,02,56,14.30
2015,07,15,02,57,14.30
2015,07,15,02,58,14.30
2015,07,15,02,59,14.20
2015,07,15,03,00,14.20
2015,07,15,03,01,14.20
2015,07,15,03,02,14.20
2015,07,15,03,06,14.10
2015,07,15,03,07,14.10
2015,07,15,03,08,14.10
2015,07,15,03,09,14.10
2015,07,15,03,10,14.10
2015,07,15,03,11,14.10
2015,07,15,03,12,14.10
2015,07,15,03,13,14.00
2015,07,15,03,14,14.00
2015,07,15,03,15,14.00
2015,07,15,03,16,14.00
2015,07,15,03,17,14.00
2015,07,15,03,18,13.90
2015,07,15,03,19,13.90
2015,07,15,03,20,13.90
2015,07,15,03,21,13.90
2015,07,15,03,22,13.90
2015,07,15,03,23,13.90
2015,07,15,03,24,13.90
2015,07,15,03,25,13.90
2015,07,15,03,26,13.90
2015,07,15,03,27,13.90
2015,07,15,03,28,13.90
2015,07,15,03,29,13.90
2015,07,15,03,30,13.90
2015,07,15,03,31,13.90
2015,07,15,03,32,13.90
2015,07,15,03,33,13.90
2015,07,15,03,34,13.90
2015,07,15,03,35,13.90
2015,07,15,03,36,13.90
2015,07,15,03,37,13.90
2015,07,15,03,38,13.90
2015,07,15,03,39,13.90
2015,07,15,03,40,13.90
2015,07,15,03,41,13.90
2015,07,15,03,42,13.90
2015,07,15,03,43,13.90
2015,07,15,03,44,13.80
2015,07,15,03,45,13.80
2015,07,15,03,46,13.80
2015,07,15,03,47,13.80
2015,07,15,03,48,13.80
2015,07,15,03,49,13.70
2015,07,15,03,50,13.70
2015,07,15,03,51,13.70
2015,07,15,03,52,13.70
2015,07,15,03,53,13.60
2015,07,15,03,54,13.60
2015,07,15,03,55,13.60
2015,07,15,03,56,13.60
2015,07,15,03,57,13.60
2015,07,15,03,58,13.60
2015,07,15,03,59,13.60
2015,07,15,04,00,13.60
2015,07,15,04,01,13.60
2015,07,15,04,02,13.60
2015,07,15,04,03,13.60
2015,07,15,04,04,13.60
2015,07,15,04,05,13.60
2015,07,15,04,06,13.60
2015,07,15,04,07,13.60
2015,07,15,04,08,13.60
2015,07,15,04,09,13.60
2015,07,15,04,10,13.60
2015,07,15,04,11,13.60
2015,07,15,04,12,13.60
2015,07,15,04,13,13.70
2015,07,15,04,14,13.70
2015,07,15,04,15,13.70
2015,07,15,04,16,13.70
2015,07,15,04,17,13.70
2015,07,15,04,18,13.70
2015,07,15,04,19,13.70
2015,07,15,04,20,13.70
2015,07,15,04,21,13.80
2015,07,15,04,22,13.80
2015,07,15,04,23,13.80
2015,07,15,04,24,13.80
2015,07,15,04,25,13.80
2015,07,15,04,26,13.80
2015,07,15,04,27,13.80
2015,07,15,04,28,13.80
2015,07,15,04,29,13.70
2015,07,15,04,30,13.80
2015,07,15,04,31,13.70
2015,07,15,04,32,13.70
2015,07,15,04,33,13.70
2015,07,15,04,34,13.70
2015,07,15,04,35,13.70
2015,07,15,04,36,13.70
2015,07,15,04,37,13.70
2015,07,15,04,38,13.70
2015,07,15,04,39,13.70
2015,07,15,04,40,13.70
2015,07,15,04,41,13.70
2015,07,15,04,42,13.70
2015,07,15,04,43,13.70
2015,07,15,04,44,13.60
2015,07,15,04,45,13.60
2015,07,15,04,46,13.60
2015,07,15,04,47,13.50
2015,07,15,04,48,13.50
2015,07,15,04,49,13.50
2015,07,15,04,50,13.50
2015,07,15,04,51,13.50
2015,07,15,04,52,13.40
2015,07,15,04,53,13.40
2015,07,15,04,54,13.40
2015,07,15,04,55,13.40
2015,07,15,04,56,13.40
2015,07,15,04,57,13.50
2015,07,15,04,58,13.40
2015,07,15,04,59,13.50
2015,07,15,05,00,13.40
2015,07,15,05,01,13.50
2015,07,15,05,02,13.50
2015,07,15,05,03,13.50
2015,07,15,05,04,13.50
2015,07,15,05,05,13.40
2015,07,15,05,06,13.40
2015,07,15,05,07,13.40
2015,07,15,05,08,13.40
2015,07,15,05,09,13.40
2015,07,15,05,10,13.40
2015,07,15,05,11,13.40
2015,07,15,05,12,13.40
2015,07,15,05,13,13.40
2015,07,15,05,14,13.40
2015,07,15,05,15,13.40
2015,07,15,05,16,13.40
2015,07,15,05,17,13.40
2015,07,15,05,18,13.40
2015,07,15,05,19,13.40
2015,07,15,05,20,13.30
2015,07,15,05,21,13.30
2015,07,15,05,22,13.30
2015,07,15,05,23,13.30
2015,07,15,05,24,13.30
2015,07,15,05,25,13.30
2015,07,15,05,26,13.30
2015,07,15,05,27,13.30
2015,07,15,05,28,13.30
2015,07,15,05,29,13.30
2015,07,15,05,30,13.30
2015,07,15,05,31,13.30
2015,07,15,05,32,13.30
2015,07,15,05,33,13.30
2015,07,15,05,34,13.30
2015,07,15,05,35,13.30
2015,07,15,05,36,13.30
2015,07,15,05,37,13.30
2015,07,15,05,38,13.30
2015,07,15,05,39,13.30
2015,07,15,05,40,13.30
2015,07,15,05,41,13.30
2015,07,15,05,42,13.30
2015,07,15,05,43,13.30
2015,07,15,05,44,13.30
2015,07,15,05,45,13.30
2015,07,15,05,46,13.30
2015,07,15,05,47,13.30
2015,07,15,05,48,13.30
2015,07,15,05,49,13.30
2015,07,15,05,50,13.30
2015,07,15,05,51,13.30
2015,07,15,05,52,13.30
2015,07,15,05,53,13.30
2015,07,15,05,54,13.30
2015,07,15,05,55,13.30
2015,07,15,05,56,13.30
2015,07,15,05,57,13.30
2015,07,15,05,58,13.30
2015,07,15,05,59,13.30
2015,07,15,06,00,13.30
2015,07,15,06,01,13.30
2015,07,15,06,02,13.30
2015,07,15,06,03,13.30
2015,07,15,06,04,13.30
2015,07,15,06,05,13.30
2015,07,15,06,06,13.30
2015,07,15,06,07,13.30
2015,07,15,06,08,13.30
2015,07,15,06,09,13.30
2015,07,15,06,10,13.40
2015,07,15,06,11,13.40
2015,07,15,06,12,13.40
2015,07,15,06,13,13.40
2015,07,15,06,14,13.50
2015,07,15,06,15,13.50
2015,07,15,06,16,13.50
2015,07,15,06,17,13.60
2015,07,15,06,18,13.60
2015,07,15,06,19,13.60
2015,07,15,06,20,13.60
2015,07,15,06,21,13.60
2015,07,15,06,22,13.60
2015,07,15,06,23,13.60
2015,07,15,06,24,13.70
2015,07,15,06,25,13.70
2015,07,15,06,26,13.70
2015,07,15,06,27,13.70
2015,07,15,06,28,13.70
2015,07,15,06,29,13.70
2015,07,15,06,30,13.70
2015,07,15,06,31,13.70
2015,07,15,06,32,13.70
2015,07,15,06,33,13.60
2015,07,15,06,34,13.60
2015,07,15,06,35,13.60
2015,07,15,06,36,13.60
2015,07,15,06,37,13.60
2015,07,15,06,38,13.70
2015,07,15,06,39,13.70
2015,07,15,06,40,13.70
2015,07,15,06,41,13.70
2015,07,15,06,42,13.70
2015,07,15,06,43,13.70
2015,07,15,06,44,13.70
2015,07,15,06,45,13.70
2015,07,15,06,46,13.70
2015,07,15,06,47,13.70
2015,07,15,06,48,13.70
2015,07,15,06,49,13.70
2015,07,15,06,50,13.80
2015,07,15,06,51,13.80
2015,07,15,06,52,13.80
2015,07,15,06,53,13.90
2015,07,15,06,54,13.90
2015,07,15,06,55,13.90
2015,07,15,06,56,13.90
2015,07,15,06,57,14.00
2015,07,15,06,58,14.00
2015,07,15,06,59,14.10
2015,07,15,07,00,14.10
2015,07,15,07,01,14.10
2015,07,15,07,02,14.20
2015,07,15,07,03,14.20
2015,07,15,07,04,14.20
2015,07,15,07,05,14.30
2015,07,15,07,06,14.30
2015,07,15,07,07,14.40
2015,07,15,07,08,14.40
2015,07,15,07,09,14.50
2015,07,15,07,10,14.50
2015,07,15,07,11,14.60
2015,07,15,07,12,14.70
2015,07,15,07,13,14.70
2015,07,15,07,14,14.70
2015,07,15,07,15,14.80
2015,07,15,07,16,14.80
2015,07,15,07,17,14.80
2015,07,15,07,18,14.90
2015,07,15,07,19,14.90
2015,07,15,07,20,14.90
2015,07,15,07,21,14.90
2015,07,15,07,22,14.90
2015,07,15,07,23,14.90
2015,07,15,07,24,15.00
2015,07,15,07,25,15.00
2015,07,15,07,26,15.10
2015,07,15,07,27,15.10
2015,07,15,07,28,15.10
2015,07,15,07,29,15.10
2015,07,15,07,30,15.20
2015,07,15,07,31,15.20
2015,07,15,07,32,15.20
2015,07,15,07,33,15.20
2015,07,15,07,34,15.30
2015,07,15,07,35,15.30
2015,07,15,07,36,15.30
2015,07,15,07,37,15.30
2015,07,15,07,38,15.30
2015,07,15,07,39,15.40
2015,07,15,07,40,15.40
2015,07,15,07,41,15.40
2015,07,15,07,42,15.40
2015,07,15,07,43,15.40
2015,07,15,07,44,15.40
2015,07,15,07,45,15.30
2015,07,15,07,46,15.30
2015,07,15,07,47,15.30
2015,07,15,07,48,15.30
2015,07,15,07,49,15.30
2015,07,15,07,50,15.30
2015,07,15,07,51,15.30
2015,07,15,07,52,15.30
2015,07,15,07,53,15.30
2015,07,15,07,54,15.30
2015,07,15,07,55,15.40
2015,07,15,07,56,15.40
2015,07,15,07,57,15.40
2015,07,15,07,58,15.40
2015,07,15,07,59,15.50
2015,07,15,08,00,15.50
2015,07,15,08,01,15.50
2015,07,15,08,02,15.60
2015,07,15,08,03,15.60
2015,07,15,08,04,15.60
2015,07,15,08,05,15.60
2015,07,15,08,06,15.60
2015,07,15,08,07,15.60
2015,07,15,08,08,15.70
2015,07,15,08,09,15.70
2015,07,15,08,10,15.70
2015,07,15,08,11,15.70
2015,07,15,08,12,15.70
2015,07,15,08,13,15.80
2015,07,15,08,14,15.80
2015,07,15,08,15,15.80
2015,07,15,08,16,15.80
2015,07,15,08,17,15.90
2015,07,15,08,18,15.90
2015,07,15,08,19,15.90
2015,07,15,08,20,15.90
2015,07,15,08,21,16.00
2015,07,15,08,22,16.00
2015,07,15,08,23,16.00
2015,07,15,08,24,16.10
2015,07,15,08,25,16.10
2015,07,15,08,26,16.10
2015,07,15,08,27,16.10
2015,07,15,08,28,16.10
2015,07,15,08,29,16.10
2015,07,15,08,30,16.10
2015,07,15,08,31,16.20
2015,07,15,08,32,16.20
2015,07,15,08,33,16.20
2015,07,15,08,34,16.20
2015,07,15,08,35,16.20
2015,07,15,08,36,16.20
2015,07,15,08,37,16.20
2015,07,15,08,38,16.10
2015,07,15,08,39,16.10
2015,07,15,08,40,16.10
2015,07,15,08,41,16.20
2015,07,15,08,42,16.20
2015,07,15,08,43,16.20
2015,07,15,08,44,16.20
2015,07,15,08,45,16.30
2015,07,15,08,46,16.30
2015,07,15,08,47,16.30
2015,07,15,08,48,16.30
2015,07,15,08,49,16.40
2015,07,15,08,50,16.40
2015,07,15,08,51,16.40
2015,07,15,08,52,16.40
2015,07,15,08,53,16.40
2015,07,15,08,54,16.40
2015,07,15,08,55,16.40
2015,07,15,08,56,16.40
2015,07,15,08,57,16.40
2015,07,15,08,58,16.50
2015,07,15,08,59,16.50
2015,07,15,09,00,16.50
2015,07,15,09,01,16.60
2015,07,15,09,02,16.70
2015,07,15,09,03,16.80
2015,07,15,09,04,16.80
2015,07,15,09,05,16.90
2015,07,15,09,06,17.00
2015,07,15,09,07,17.00
2015,07,15,09,08,17.10
2015,07,15,09,09,17.10
2015,07,15,09,10,17.10
2015,07,15,09,11,17.20
2015,07,15,09,12,17.20
2015,07,15,09,13,17.20
2015,07,15,09,14,17.20
2015,07,15,09,15,17.20
2015,07,15,09,16,17.30
2015,07,15,09,17,17.30
2015,07,15,09,18,17.30
2015,07,15,09,19,17.40
2015,07,15,09,20,17.40
2015,07,15,09,21,17.50
2015,07,15,09,22,17.50
2015,07,15,09,23,17.60
2015,07,15,09,24,17.60
2015,07,15,09,25,17.60
2015,07,15,09,26,17.50
2015,07,15,09,27,17.50
2015,07,15,09,28,17.40
2015,07,15,09,29,17.40
2015,07,15,09,30,17.40
2015,07,15,09,31,17.40
2015,07,15,09,32,17.40
2015,07,15,09,33,17.40
2015,07,15,09,34,17.40
2015,07,15,09,35,17.40
2015,07,15,09,36,17.40
2015,07,15,09,37,17.40
2015,07,15,09,38,17.40
2015,07,15,09,39,17.40
2015,07,15,09,40,17.40
2015,07,15,09,41,17.50
2015,07,15,09,42,17.50
2015,07,15,09,43,17.60
2015,07,15,09,44,17.60
2015,07,15,09,45,17.70
2015,07,15,09,46,17.70
2015,07,15,09,47,17.80
2015,07,15,09,48,17.80
2015,07,15,09,49,17.80
2015,07,15,09,50,17.90
2015,07,15,09,51,17.90
2015,07,15,09,52,17.90
2015,07,15,09,53,18.00
2015,07,15,09,54,18.00
2015,07,15,09,55,18.10
2015,07,15,09,56,18.10
2015,07,15,09,57,18.10
2015,07,15,09,58,18.20
2015,07,15,09,59,18.30
2015,07,15,10,00,18.30
2015,07,15,10,01,18.40
2015,07,15,10,02,18.40
2015,07,15,10,03,18.40
2015,07,15,10,04,18.40
2015,07,15,10,05,18.40
2015,07,15,10,06,18.40
2015,07,15,10,07,18.40
2015,07,15,10,08,18.30
2015,07,15,10,09,18.40
2015,07,15,10,10,18.40
2015,07,15,10,11,18.40
2015,07,15,10,12,18.40
2015,07,15,10,13,18.40
2015,07,15,10,14,18.40
2015,07,15,10,15,18.30
2015,07,15,10,16,18.40
2015,07,15,10,17,18.40
2015,07,15,10,18,18.40
2015,07,15,10,19,18.50
2015,07,15,10,20,18.50
2015,07,15,10,21,18.60
2015,07,15,10,22,18.70
2015,07,15,10,23,18.70
2015,07,15,10,24,18.70
2015,07,15,10,25,18.70
2015,07,15,10,26,18.70
2015,07,15,10,27,18.80
2015,07,15,10,28,18.80
2015,07,15,10,29,18.80
2015,07,15,10,30,18.90
2015,07,15,10,31,18.90
2015,07,15,10,32,19.00
2015,07,15,10,33,19.10
2015,07,15,10,34,19.10
2015,07,15,10,35,19.20
2015,07,15,10,36,19.30
2015,07,15,10,37,19.30
2015,07,15,10,38,19.40
2015,07,15,10,39,19.50
2015,07,15,10,40,19.60
2015,07,15,10,41,19.60
2015,07,15,10,42,19.60
2015,07,15,10,43,19.60
2015,07,15,10,44,19.60
2015,07,15,10,45,19.60
2015,07,15,10,46,19.60
2015,07,15,10,47,19.60
2015,07,15,10,48,19.60
2015,07,15,10,49,19.60
2015,07,15,10,50,19.50
2015,07,15,10,51,19.50
2015,07,15,10,52,19.50
2015,07,15,10,53,19.50
2015,07,15,10,54,19.50
2015,07,15,10,55,19.50
2015,07,15,10,56,19.50
2015,07,15,10,57,19.60
2015,07,15,10,58,19.60
2015,07,15,10,59,19.60
2015,07,15,11,00,19.60
2015,07,15,11,01,19.60
2015,07,15,11,02,19.70
2015,07,15,11,03,19.80
2015,07,15,11,04,19.80
2015,07,15,11,05,19.80
2015,07,15,11,06,19.80
2015,07,15,11,07,19.80
2015,07,15,11,08,19.80
2015,07,15,11,09,19.80
2015,07,15,11,10,19.80
2015,07,15,11,11,19.90
2015,07,15,11,12,19.90
2015,07,15,11,13,19.90
2015,07,15,11,14,19.90
2015,07,15,11,15,20.00
2015,07,15,11,16,20.00
2015,07,15,11,17,20.10
2015,07,15,11,18,20.10
2015,07,15,11,19,20.10
2015,07,15,11,20,20.10
2015,07,15,11,21,20.10
2015,07,15,11,22,20.10
2015,07,15,11,23,20.10
2015,07,15,11,24,20.10
2015,07,15,11,25,20.10
2015,07,15,11,26,20.30
2015,07,15,11,27,20.40
2015,07,15,11,28,20.40
2015,07,15,11,29,20.50
2015,07,15,11,30,20.50
2015,07,15,11,31,20.50
2015,07,15,11,32,20.50
2015,07,15,11,33,20.40
2015,07,15,11,34,20.30
2015,07,15,11,35,20.20
2015,07,15,11,36,20.10
2015,07,15,11,37,20.00
2015,07,15,11,38,20.00
2015,07,15,11,39,20.00
2015,07,15,11,40,20.10
2015,07,15,11,41,20.10
2015,07,15,11,42,20.00
2015,07,15,11,43,20.10
2015,07,15,11,44,20.10
2015,07,15,11,45,20.10
2015,07,15,11,46,20.20
2015,07,15,11,47,20.20
2015,07,15,11,48,20.30
2015,07,15,11,49,20.30
2015,07,15,11,50,20.30
2015,07,15,11,51,20.30
2015,07,15,11,52,20.20
2015,07,15,11,53,20.20
2015,07,15,11,54,20.20
2015,07,15,11,55,20.20
2015,07,15,11,56,20.10
2015,07,15,11,57,20.10
2015,07,15,11,58,20.10
2015,07,15,11,59,20.20
2015,07,15,12,00,20.30
2015,07,15,12,01,20.30
2015,07,15,12,02,20.30
2015,07,15,12,03,20.30
2015,07,15,12,04,20.40
2015,07,15,12,05,20.40
2015,07,15,12,06,20.50
2015,07,15,12,07,20.50
2015,07,15,12,08,20.60
2015,07,15,12,09,20.70
2015,07,15,12,10,20.80
2015,07,15,12,11,20.90
2015,07,15,12,12,21.00
2015,07,15,12,13,21.00
2015,07,15,12,14,21.00
2015,07,15,12,15,21.00
2015,07,15,12,16,21.00
2015,07,15,12,17,20.90
2015,07,15,12,18,20.90
2015,07,15,12,19,20.90
2015,07,15,12,20,21.00
2015,07,15,12,21,21.00
2015,07,15,12,22,21.00
2015,07,15,12,23,20.90
2015,07,15,12,24,20.80
2015,07,15,12,25,20.70
2015,07,15,12,26,20.70
2015,07,15,12,27,20.70
2015,07,15,12,28,20.70
2015,07,15,12,29,20.70
2015,07,15,12,30,20.80
2015,07,15,12,31,20.80
2015,07,15,12,32,20.80
2015,07,15,12,33,20.80
2015,07,15,12,34,20.90
2015,07,15,12,35,20.90
2015,07,15,12,36,21.00
2015,07,15,12,37,21.10
2015,07,15,12,38,21.20
2015,07,15,12,39,21.20
2015,07,15,12,40,21.20
2015,07,15,12,41,21.20
2015,07,15,12,42,21.30
2015,07,15,12,43,21.20
2015,07,15,12,44,21.30
2015,07,15,12,45,21.20
2015,07,15,12,46,21.10
2015,07,15,12,47,21.00
2015,07,15,12,48,21.00
2015,07,15,12,49,20.90
2015,07,15,12,50,20.90
2015,07,15,12,51,20.80
2015,07,15,12,52,20.90
2015,07,15,12,53,21.00
2015,07,15,12,54,21.10
2015,07,15,12,55,21.30
2015,07,15,12,56,21.40
2015,07,15,12,57,21.40
2015,07,15,12,58,21.40
2015,07,15,12,59,21.30
2015,07,15,13,00,21.40
2015,07,15,13,01,21.40
2015,07,15,13,02,21.40
2015,07,15,13,03,21.50
2015,07,15,13,04,21.70
2015,07,15,13,05,21.80
2015,07,15,13,06,21.80
2015,07,15,13,07,21.80
2015,07,15,13,08,21.80
2015,07,15,13,09,21.70
2015,07,15,13,10,21.60
2015,07,15,13,11,21.60
2015,07,15,13,12,21.60
2015,07,15,13,13,21.50
2015,07,15,13,14,21.50
2015,07,15,13,15,21.50
2015,07,15,13,16,21.60
2015,07,15,13,17,21.60
2015,07,15,13,18,21.70
2015,07,15,13,19,21.80
2015,07,15,13,20,21.70
2015,07,15,13,21,21.70
2015,07,15,13,22,21.70
2015,07,15,13,23,21.80
2015,07,15,13,24,21.80
2015,07,15,13,25,21.80
2015,07,15,13,26,21.80
2015,07,15,13,27,21.80
2015,07,15,13,28,21.70
2015,07,15,13,29,21.70
2015,07,15,13,30,21.80
2015,07,15,13,31,21.90
2015,07,15,13,32,22.00
2015,07,15,13,33,22.00
2015,07,15,13,34,22.00
2015,07,15,13,35,21.90
2015,07,15,13,36,21.90
2015,07,15,13,37,22.00
2015,07,15,13,38,22.10
2015,07,15,13,39,22.10
2015,07,15,13,40,22.20
2015,07,15,13,41,22.20
2015,07,15,13,42,22.20
2015,07,15,13,43,22.20
2015,07,15,13,44,22.10
2015,07,15,13,45,22.00
2015,07,15,13,46,22.00
2015,07,15,13,47,22.00
2015,07,15,13,48,22.10
2015,07,15,13,49,22.30
2015,07,15,13,50,22.30
2015,07,15,13,51,22.30
2015,07,15,13,52,22.10
2015,07,15,13,53,22.10
2015,07,15,13,54,22.00
2015,07,15,13,55,22.10
2015,07,15,13,56,22.20
2015,07,15,13,57,22.30
2015,07,15,13,58,22.30
2015,07,15,13,59,22.40
2015,07,15,14,00,22.40
2015,07,15,14,01,22.40
2015,07,15,14,02,22.30
2015,07,15,14,03,22.20
2015,07,15,14,04,22.20
2015,07,15,14,05,22.20
2015,07,15,14,06,22.20
2015,07,15,14,07,22.20
2015,07,15,14,08,22.30
2015,07,15,14,09,22.40
2015,07,15,14,10,22.50
2015,07,15,14,11,22.60
2015,07,15,14,12,22.70
2015,07,15,14,13,22.70
2015,07,15,14,14,22.60
2015,07,15,14,15,22.60
2015,07,15,14,16,22.60
2015,07,15,14,17,22.60
2015,07,15,14,18,22.70
2015,07,15,14,19,22.70
2015,07,15,14,20,22.70
2015,07,15,14,21,22.70
2015,07,15,14,22,22.70
2015,07,15,14,23,22.70
2015,07,15,14,24,22.70
2015,07,15,14,25,22.70
2015,07,15,14,26,22.70
2015,07,15,14,27,22.60
2015,07,15,14,28,22.60
2015,07,15,14,29,22.70
2015,07,15,14,30,22.70
2015,07,15,14,31,22.70
2015,07,15,14,32,22.70
2015,07,15,14,33,22.70
2015,07,15,14,34,22.60
2015,07,15,14,35,22.50
2015,07,15,14,36,22.30
2015,07,15,14,37,22.20
2015,07,15,14,38,21.90
2015,07,15,14,39,21.80
2015,07,15,14,40,21.80
2015,07,15,14,41,21.80
2015,07,15,14,42,21.90
2015,07,15,14,43,22.00
2015,07,15,14,44,22.00
2015,07,15,14,45,22.00
2015,07,15,14,46,22.00
2015,07,15,14,47,22.00
2015,07,15,14,48,21.90
2015,07,15,14,49,21.90
2015,07,15,14,50,21.90
2015,07,15,14,51,21.90
2015,07,15,14,52,21.80
2015,07,15,14,53,21.70
2015,07,15,14,54,21.70
2015,07,15,14,55,21.70
2015,07,15,14,56,21.60
2015,07,15,14,57,21.50
2015,07,15,14,58,21.40
2015,07,15,14,59,21.20
2015,07,15,15,00,21.00
2015,07,15,15,01,20.90
2015,07,15,15,02,20.80
2015,07,15,15,03,20.80
2015,07,15,15,04,20.80
2015,07,15,15,05,20.80
2015,07,15,15,06,20.80
2015,07,15,15,07,20.70
2015,07,15,15,08,20.70
2015,07,15,15,09,20.60
2015,07,15,15,10,20.60
2015,07,15,15,11,20.60
2015,07,15,15,12,20.60
2015,07,15,15,13,20.60
2015,07,15,15,14,20.60
2015,07,15,15,15,20.50
2015,07,15,15,16,20.50
2015,07,15,15,17,20.50
2015,07,15,15,18,20.40
2015,07,15,15,19,20.40
2015,07,15,15,20,20.40
2015,07,15,15,21,20.40
2015,07,15,15,22,20.40
2015,07,15,15,23,20.40
2015,07,15,15,24,20.40
2015,07,15,15,25,20.30
2015,07,15,15,26,20.30
2015,07,15,15,27,20.30
2015,07,15,15,28,20.30
2015,07,15,15,29,20.30
2015,07,15,15,30,20.40
2015,07,15,15,31,20.30
2015,07,15,15,32,20.20
2015,07,15,15,33,20.20
2015,07,15,15,34,20.30
2015,07,15,15,35,20.40
2015,07,15,15,36,20.40
2015,07,15,15,37,20.40
2015,07,15,15,38,20.40
2015,07,15,15,39,20.30
2015,07,15,15,40,20.30
2015,07,15,15,41,20.30
2015,07,15,15,42,20.30
2015,07,15,15,43,20.30
2015,07,15,15,44,20.30
2015,07,15,15,45,20.30
2015,07,15,15,46,20.30
2015,07,15,15,47,20.20
2015,07,15,15,48,20.20
2015,07,15,15,49,20.20
2015,07,15,15,50,20.10
2015,07,15,15,51,20.10
2015,07,15,15,52,20.10
2015,07,15,15,53,20.10
2015,07,15,15,54,20.10
2015,07,15,15,55,20.10
2015,07,15,15,56,20.10
2015,07,15,15,57,20.10
2015,07,15,15,58,20.20
2015,07,15,15,59,20.20
2015,07,15,16,00,20.30
2015,07,15,16,01,20.30
2015,07,15,16,02,20.40
2015,07,15,16,03,20.40
2015,07,15,16,04,20.50
2015,07,15,16,05,20.60
2015,07,15,16,06,20.50
2015,07,15,16,07,20.50
2015,07,15,16,08,20.50
2015,07,15,16,09,20.40
2015,07,15,16,10,20.40
2015,07,15,16,11,20.40
2015,07,15,16,12,20.50
2015,07,15,16,13,20.50
2015,07,15,16,14,20.50
2015,07,15,16,15,20.50
2015,07,15,16,16,20.50
2015,07,15,16,17,20.50
2015,07,15,16,18,20.60
2015,07,15,16,19,20.60
2015,07,15,16,20,20.80
2015,07,15,16,21,20.90
2015,07,15,16,22,21.00
2015,07,15,16,23,21.10
2015,07,15,16,24,21.30
2015,07,15,16,25,21.40
2015,07,15,16,26,21.40
2015,07,15,16,27,21.50
2015,07,15,16,28,21.60
2015,07,15,16,29,21.60
2015,07,15,16,30,21.50
2015,07,15,16,31,21.40
2015,07,15,16,32,21.40
2015,07,15,16,33,21.30
2015,07,15,16,34,21.10
2015,07,15,16,35,21.00
2015,07,15,16,36,20.90
2015,07,15,16,37,20.80
2015,07,15,16,38,20.70
2015,07,15,16,39,20.70
2015,07,15,16,40,20.70
2015,07,15,16,41,20.70
2015,07,15,16,42,20.70
2015,07,15,16,43,20.80
2015,07,15,16,44,20.90
2015,07,15,16,45,21.00
2015,07,15,16,46,21.10
2015,07,15,16,47,21.10
2015,07,15,16,48,21.10
2015,07,15,16,49,21.10
2015,07,15,16,50,21.00
2015,07,15,16,51,20.90
2015,07,15,16,52,20.80
2015,07,15,16,53,20.80
2015,07,15,16,54,20.70
2015,07,15,16,55,20.70
2015,07,15,16,56,20.70
2015,07,15,16,57,20.70
2015,07,15,16,58,20.80
2015,07,15,16,59,20.80
2015,07,15,17,00,20.90
2015,07,15,17,01,20.90
2015,07,15,17,02,20.80
2015,07,15,17,03,20.70
2015,07,15,17,04,20.60
2015,07,15,17,05,20.50
2015,07,15,17,06,20.50
2015,07,15,17,07,20.60
2015,07,15,17,08,20.60
2015,07,15,17,09,20.60
2015,07,15,17,10,20.60
2015,07,15,17,11,20.60
2015,07,15,17,12,20.70
2015,07,15,17,13,20.70
2015,07,15,17,14,20.70
2015,07,15,17,15,20.60
2015,07,15,17,16,20.70
2015,07,15,17,17,20.70
2015,07,15,17,18,20.70
2015,07,15,17,19,20.70
2015,07,15,17,20,20.70
2015,07,15,17,21,20.80
2015,07,15,17,22,20.80